Latest Weather Observations for Ocean Reef

IDW60801

Issued at 6:03 pm WST Sunday 22 January 2017 (issued every 30 minutes, with the page automatically refreshed every 10 minutes)

About weather observations | Map of weather stations | Latest weather observations for WA | Other Formats
Station Details ID: 009214 Name: OCEAN REEF Lat: -31.76 Lon: 115.73 Height: 10.0 m
Data from the previous 72 hours. | See also: Recent months at Ocean Reef
Date/Time
WST
Temp
°C
App
Temp
°C
Dew
Point
°C
Rel
Hum
%
Delta-T
°C
Wind Press
QNH
hPa
Press
MSL
hPa
Rain since
9am
mm
Dir  Spd
km/h
Gust
km/h
Spd
kts
Gust
kts
22/06:00pm - - - - - SW 41 50 22 27 - - -
22/05:30pm - - - - - SW 37 48 20 26 - - -
22/05:00pm - - - - - SSW 37 44 20 24 - - -
22/04:30pm - - - - - SSW 39 46 21 25 - - -
22/04:00pm - - - - - SSW 37 44 20 24 - - -
22/03:30pm - - - - - SW 37 44 20 24 - - -
22/03:00pm - - - - - SSW 39 48 21 26 - - -
22/02:30pm - - - - - SSW 39 44 21 24 - - -
22/02:00pm - - - - - SSW 39 50 21 27 - - -
22/01:30pm - - - - - SSW 41 50 22 27 - - -
22/01:00pm - - - - - SSW 43 52 23 28 - - -
22/12:30pm - - - - - SSW 41 50 22 27 - - -
22/12:00pm - - - - - SSW 43 52 23 28 - - -
22/11:30am - - - - - SSW 43 50 23 27 - - -
22/11:00am - - - - - SSW 39 48 21 26 - - -
22/10:30am - - - - - SSW 39 48 21 26 - - -
22/10:00am - - - - - SSW 39 48 21 26 - - -
22/09:30am - - - - - S 35 44 19 24 - - -
22/09:00am - - - - - S 37 46 20 25 - - -
22/08:30am - - - - - S 35 43 19 23 - - -
22/08:00am - - - - - S 37 46 20 25 - - -
22/07:30am - - - - - S 39 50 21 27 - - -
22/07:00am - - - - - S 41 54 22 29 - - -
22/06:30am - - - - - S 39 52 21 28 - - -
22/06:00am - - - - - S 41 54 22 29 - - -
22/05:30am - - - - - S 39 54 21 29 - - -
22/05:00am - - - - - S 39 48 21 26 - - -
22/04:30am - - - - - S 35 46 19 25 - - -
22/04:00am - - - - - S 39 50 21 27 - - -
22/03:30am - - - - - S 43 52 23 28 - - -
22/03:00am - - - - - S 41 50 22 27 - - -
22/02:30am - - - - - SSW 41 52 22 28 - - -
22/02:00am - - - - - SSW 39 48 21 26 - - -
22/01:30am - - - - - SSW 39 46 21 25 - - -
22/01:00am - - - - - S 37 44 20 24 - - -
22/12:30am - - - - - SSW 37 44 20 24 - - -
22/12:00am - - - - - S 37 46 20 25 - - -
 
Date/Time
WST
Temp
°C
App
Temp
°C
Dew
Point
°C
Rel
Hum
%
Delta-T
°C
Wind Press
QNH
hPa
Press
MSL
hPa
Rain since
9am
mm
Dir  Spd
km/h
Gust
km/h
Spd
kts
Gust
kts
21/11:30pm - - - - - S 41 48 22 26 - - -
21/11:00pm - - - - - SSW 39 46 21 25 - - -
21/10:30pm - - - - - SSW 37 43 20 23 - - -
21/10:00pm - - - - - SSW 37 44 20 24 - - -
21/09:30pm - - - - - SSW 37 44 20 24 - - -
21/09:00pm - - - - - SSW 35 44 19 24 - - -
21/08:30pm - - - - - SSW 35 41 19 22 - - -
21/08:00pm - - - - - SSW 37 43 20 23 - - -
21/07:30pm - - - - - SSW 39 46 21 25 - - -
21/07:00pm - - - - - SSW 37 44 20 24 - - -
21/06:30pm - - - - - SSW 35 44 19 24 - - -
21/06:00pm - - - - - SSW 37 44 20 24 - - -
21/05:30pm - - - - - SSW 35 41 19 22 - - -
21/05:00pm - - - - - SSW 37 44 20 24 - - -
21/04:30pm - - - - - SSW 35 46 19 25 - - -
21/04:00pm - - - - - SSW 35 46 19 25 - - -
21/03:30pm - - - - - SSW 35 41 19 22 - - -
21/03:00pm - - - - - SSW 33 39 18 21 - - -
21/02:30pm - - - - - SSW 30 35 16 19 - - -
21/02:00pm - - - - - SSW 30 37 16 20 - - -
21/01:30pm - - - - - SSW 32 37 17 20 - - -
21/01:00pm - - - - - SSW 30 35 16 19 - - -
21/12:30pm - - - - - SSW 28 33 15 18 - - -
21/12:00pm - - - - - SSW 26 30 14 16 - - -
21/11:30am - - - - - SSW 24 28 13 15 - - -
21/11:00am - - - - - SSW 28 32 15 17 - - -
21/10:30am - - - - - SSW 28 33 15 18 - - -
21/10:00am - - - - - S 28 32 15 17 - - -
21/09:30am - - - - - S 28 32 15 17 - - -
21/09:00am - - - - - S 26 32 14 17 - - -
21/08:30am - - - - - S 19 26 10 14 - - -
21/08:00am - - - - - SSE 17 22 9 12 - - -
21/07:30am - - - - - S 13 15 7 8 - - -
21/07:00am - - - - - SSE 11 15 6 8 - - -
21/06:30am - - - - - SSE 13 13 7 7 - - -
21/06:00am - - - - - SE 11 13 6 7 - - -
21/05:30am - - - - - SSE 11 13 6 7 - - -
21/05:00am - - - - - SSW 9 13 5 7 - - -
21/04:30am - - - - - ESE 7 9 4 5 - - -
21/04:00am - - - - - E 7 9 4 5 - - -
21/03:30am - - - - - SE 11 15 6 8 - - -
21/03:00am - - - - - SE 15 19 8 10 - - -
21/02:30am - - - - - SE 13 15 7 8 - - -
21/02:00am - - - - - SSE 13 17 7 9 - - -
21/01:30am - - - - - S 24 28 13 15 - - -
21/01:00am - - - - - SSW 26 30 14 16 - - -
21/12:30am - - - - - SSW 26 30 14 16 - - -
21/12:00am - - - - - S 24 28 13 15 - - -
 
Date/Time
WST
Temp
°C
App
Temp
°C
Dew
Point
°C
Rel
Hum
%
Delta-T
°C
Wind Press
QNH
hPa
Press
MSL
hPa
Rain since
9am
mm
Dir  Spd
km/h
Gust
km/h
Spd
kts
Gust
kts
20/11:30pm - - - - - S 24 30 13 16 - - -
20/11:00pm - - - - - S 28 33 15 18 - - -
20/10:30pm - - - - - S 28 32 15 17 - - -
20/10:00pm - - - - - S 30 35 16 19 - - -
20/09:30pm - - - - - S 30 35 16 19 - - -
20/09:00pm - - - - - S 32 39 17 21 - - -
20/08:30pm - - - - - S 33 41 18 22 - - -
20/08:00pm - - - - - S 35 43 19 23 - - -
20/07:30pm - - - - - S 33 43 18 23 - - -
20/07:00pm - - - - - SSW 35 41 19 22 - - -
20/06:30pm - - - - - SSW 33 39 18 21 - - -
20/06:00pm - - - - - SSW 32 37 17 20 - - -
20/05:30pm - - - - - SSW 33 39 18 21 - - -
20/05:00pm - - - - - SSW 32 37 17 20 - - -
20/04:30pm - - - - - S 32 35 17 19 - - -
20/04:00pm - - - - - SSW 32 35 17 19 - - -
20/03:30pm - - - - - SSW 32 39 17 21 - - -
20/03:00pm - - - - - SSW 32 39 17 21 - - -
20/02:30pm - - - - - SSW 33 39 18 21 - - -
20/02:00pm - - - - - SSW 33 39 18 21 - - -
20/01:30pm - - - - - SSW 33 39 18 21 - - -
20/01:00pm - - - - - SSW 32 37 17 20 - - -
20/12:30pm - - - - - SW 32 35 17 19 - - -
20/12:00pm - - - - - SSW 28 32 15 17 - - -
20/11:30am - - - - - SW 26 30 14 16 - - -
20/11:00am - - - - - SW 24 28 13 15 - - -
20/10:30am - - - - - SW 17 24 9 13 - - -
20/10:00am - - - - - ENE 9 13 5 7 - - -
20/09:30am - - - - - ENE 11 22 6 12 - - -
20/09:00am - - - - - E 13 19 7 10 - - -
20/08:30am - - - - - ESE 13 17 7 9 - - -
20/08:00am - - - - - ESE 13 24 7 13 - - -
20/07:30am - - - - - ESE 22 32 12 17 - - -
20/07:00am - - - - - ESE 15 24 8 13 - - -
20/06:30am - - - - - SE 13 20 7 11 - - -
20/06:00am - - - - - SE 11 15 6 8 - - -
20/05:30am - - - - - SSE 9 11 5 6 - - -
20/05:00am - - - - - SSE 11 13 6 7 - - -
20/04:30am - - - - - SSE 11 13 6 7 - - -
20/04:00am - - - - - SSE 7 9 4 5 - - -
20/03:30am - - - - - ESE 9 11 5 6 - - -
20/03:00am - - - - - SSE 15 19 8 10 - - -
20/02:30am - - - - - SSE 24 32 13 17 - - -
20/02:00am - - - - - SSE 17 20 9 11 - - -
20/01:30am - - - - - SSE 17 24 9 13 - - -
20/01:00am - - - - - SSE 28 39 15 21 - - -
20/12:30am - - - - - SSE 26 33 14 18 - - -
20/12:00am - - - - - SSE 24 30 13 16 - - -
 
Date/Time
WST
Temp
°C
App
Temp
°C
Dew
Point
°C
Rel
Hum
%
Delta-T
°C
Wind Press
QNH
hPa
Press
MSL
hPa
Rain since
9am
mm
Dir  Spd
km/h
Gust
km/h
Spd
kts
Gust
kts
19/11:30pm - - - - - SSE 24 43 13 23 - - -
19/11:00pm - - - - - S 37 48 20 26 - - -
19/10:30pm - - - - - S 41 52 22 28 - - -
19/10:00pm - - - - - S 41 52 22 28 - - -
19/09:30pm - - - - - S 39 50 21 27 - - -
19/09:00pm - - - - - SSW 39 50 21 27 - - -
19/08:30pm - - - - - SSW 39 48 21 26 - - -
19/08:00pm - - - - - SSW 39 48 21 26 - - -
19/07:30pm - - - - - SSW 39 50 21 27 - - -
19/07:00pm - - - - - SSW 37 48 20 26 - - -
19/06:30pm - - - - - SSW 39 48 21 26 - - -

Other Formats:

Comma delimited format used in spreadsheet applications
http://www.bom.gov.au/fwo/IDW60801/IDW60801.94607.axf

JavaScript Object Notation format (JSON) in row-major order
http://www.bom.gov.au/fwo/IDW60801/IDW60801.94607.json